Location: ?ern� Novina
(50.6762°N, 14.8696°E)
Time: 16:35:22
(UTC+00:00)

Meteor 2-20 - Pass Details

Date: 03 March 2021
Orbit: 940 x 958 km, 82.5° (Epoch: 13 April)

Event Time Altitude Azimuth Distance (km) Brightness Sun altitude
Rises 18:43:05 0° 351° (N) 3,623 7.8 -19.3°
Reaches altitude 10° 18:45:39 10° 356° (N) 2,676 7.0 -19.7°
Maximum altitude 18:51:40 56° 75° (ENE) 1,119 4.5 -20.6°
Enters shadow 18:54:07 35° 135° (SE) 1,498 5.0 -21.0°
